EW4784 Weather Reports


Display with metric or nautical units.
time (UTC)temp
F
wind
direction
speed
MPH
gust
MPH
rain 1hr
in
rain 24hr
in
rain mn
in
humidity
%
barometer
mb
20260509042502 49 267 0.0 1.0 0.00 0.01 0.00 84
20260509042001 49 267 0.0 0.0 0.00 0.01 0.00 83
20260509041500 49 268 0.0 3.0 0.00 0.01 0.00 81
20260509041020 50 266 0.0 3.0 0.00 0.01 0.00 80
20260509040458 51 267 1.0 3.0 0.00 0.02 0.00 80
20260509040018 51 270 1.0 4.0 0.00 0.03 0.03 79
20260509035517 51 279 1.0 4.0 0.00 0.04 0.03 78
20260509034955 51 251 1.0 5.0 0.00 0.04 0.03 78
20260509034515 51 246 1.0 5.0 0.00 0.04 0.03 78
20260509033953 51 233 2.0 4.0 0.00 0.04 0.03 78
20260509033452 50 249 0.0 4.0 0.00 0.04 0.03 78
20260509032951 50 247 1.0 3.0 0.00 0.04 0.03 78
20260509032511 50 3 0.0 2.0 0.00 0.04 0.03 76
20260509031949 50 11 0.0 2.0 0.00 0.04 0.03 76
20260509031449 50 11 0.0 0.0 0.00 0.04 0.03 76
20260509031008 51 11 0.0 2.0 0.00 0.04 0.03 75
20260509030446 51 11 0.0 0.0 0.00 0.04 0.03 75
20260509030006 52 11 0.0 0.0 0.00 0.04 0.03 74
20260509025444 52 11 0.0 0.0 0.00 0.04 0.03 72
20260509024943 52 11 0.0 2.0 0.00 0.04 0.03 70
20260509024442 52 11 0.0 0.0 0.00 0.04 0.03 69
20260509023941 53 11 0.0 0.0 0.00 0.04 0.03 69
20260509023440 53 350 2.0 7.0 0.00 0.04 0.03 68
20260509022939 54 298 0.0 4.0 0.00 0.04 0.03 67
20260509022459 54 285 0.0 3.0 0.00 0.04 0.03 67
20260509021937 54 278 1.0 6.0 0.00 0.04 0.03 67
20260509021436 54 358 0.0 2.0 0.00 0.04 0.03 66
20260509020935 54 327 1.0 4.0 0.00 0.04 0.03 65
20260509020434 54 315 2.0 7.0 0.00 0.04 0.03 63
20260509015933 55 315 1.0 10.0 0.00 0.04 0.03 61
20260509015432 55 316 2.0 8.0 0.00 0.04 0.03 60
20260509014931 56 285 1.0 6.0 0.00 0.04 0.03 57
20260509014430 56 282 1.0 7.0 0.00 0.04 0.03 54
20260509013930 56 280 1.0 4.0 0.00 0.04 0.03 53
20260509013449 57 267 1.0 4.0 0.00 0.04 0.03 52
20260509012927 56 257 3.0 8.0 0.00 0.04 0.03 52
20260509012426 56 253 2.0 7.0 0.00 0.04 0.03 50
20260509011925 56 233 1.0 5.0 0.00 0.04 0.03 51
20260509011424 56 290 0.0 0.0 0.00 0.04 0.03 49
20260509010923 57 290 0.0 0.0 0.00 0.04 0.03 49
20260509010422 57 290 0.0 3.0 0.00 0.04 0.03 46
20260509005921 58 290 0.0 1.0 0.00 0.04 0.03 43
20260509005419 58 304 1.0 6.0 0.00 0.04 0.03 42
20260509004918 58 287 2.0 10.0 0.00 0.04 0.03 41
20260509004439 59 269 1.0 7.0 0.00 0.04 0.03 41
20260509003917 59 270 2.0 6.0 0.00 0.04 0.03 40
20260509003416 60 283 0.0 5.0 0.00 0.04 0.03 39
20260509002915 60 298 0.0 3.0 0.00 0.04 0.03 39
20260509002413 61 285 4.0 11.0 0.00 0.04 0.03 38
20260509001913 61 286 4.0 8.0 0.00 0.04 0.03 38
20260509001412 61 291 3.0 13.0 0.00 0.04 0.03 39
20260509000931 61 301 3.0 9.0 0.00 0.04 0.03 39
20260509000410 61 270 0.0 3.0 0.00 0.04 0.03 38
20260508235908 62 283 3.0 11.0 0.00 0.04 0.03 37
20260508235407 62 262 1.0 4.0 0.00 0.04 0.03 37
20260508234907 62 263 4.0 12.0 0.00 0.04 0.03 37
20260508234405 62 272 8.0 18.0 0.00 0.04 0.03 36
20260508233905 62 289 8.0 16.0 0.00 0.04 0.03 36
20260508233404 62 272 5.0 18.0 0.00 0.04 0.03 37
20260508232902 63 291 6.0 13.0 0.00 0.04 0.03 37
20260508232402 63 268 3.0 9.0 0.00 0.04 0.03 37
20260508231900 63 302 6.0 16.0 0.00 0.04 0.03 37
20260508231400 63 309 6.0 15.0 0.00 0.04 0.03 37
20260508230858 64 245 5.0 11.0 0.00 0.04 0.03 36
20260508230357 65 265 5.0 11.0 0.00 0.04 0.03 34
20260508225856 65 267 6.0 12.0 0.00 0.04 0.03 34
20260508225355 65 253 3.0 11.0 0.00 0.04 0.03 36
20260508224854 65 285 4.0 15.0 0.00 0.04 0.03 35
20260508224415 64 277 5.0 17.0 0.00 0.04 0.03 36
20260508223853 62 222 5.0 10.0 0.00 0.04 0.03 36
20260508223351 62 203 6.0 10.0 0.00 0.04 0.03 36
20260508222851 63 248 9.0 24.0 0.00 0.04 0.03 35
20260508222349 63 244 6.0 15.0 0.00 0.04 0.03 37
20260508221909 63 251 9.0 20.0 0.00 0.04 0.03 35
20260508221348 64 233 4.0 9.0 0.00 0.04 0.03 34
20260508220846 64 211 6.0 14.0 0.00 0.04 0.03 33
20260508220345 65 243 2.0 7.0 0.00 0.04 0.03 33
20260508215845 65 279 6.0 13.0 0.00 0.04 0.03 33
20260508215343 64 281 7.0 16.0 0.00 0.04 0.03 33
20260508214842 66 319 9.0 19.0 0.00 0.04 0.03 32
20260508214402 66 274 3.0 10.0 0.00 0.04 0.03 31
20260508213840 65 255 9.0 17.0 0.00 0.04 0.03 33
20260508213340 63 208 11.0 19.0 0.00 0.04 0.03 33
20260508212838 64 248 8.0 25.0 0.00 0.04 0.03 34
20260508212337 64 203 8.0 24.0 0.00 0.04 0.03 34
20260508211836 63 217 5.0 13.0 0.00 0.04 0.03 35
20260508211335 63 250 9.0 21.0 0.00 0.04 0.03 34
20260508210834 64 241 9.0 20.0 0.00 0.04 0.03 34
20260508210333 65 226 9.0 21.0 0.00 0.04 0.03 33
20260508205832 66 251 3.0 8.0 0.00 0.04 0.03 34
20260508205353 65 282 5.0 16.0 0.00 0.04 0.03 34
20260508204831 65 312 7.0 16.0 0.00 0.04 0.03 35
20260508204350 65 298 12.0 24.0 0.00 0.04 0.03 33
20260508203828 65 284 11.0 24.0 0.00 0.04 0.03 34
20260508203328 65 276 8.0 15.0 0.00 0.04 0.03 35
20260508202826 65 323 12.0 25.0 0.00 0.04 0.03 35
20260508202346 64 204 7.0 16.0 0.00 0.04 0.03 36
20260508201845 63 238 8.0 18.0 0.00 0.04 0.03 36
20260508201323 64 263 8.0 13.0 0.00 0.04 0.03 34
20260508200822 66 277 10.0 17.0 0.00 0.04 0.03 35
20260508200342 65 250 12.0 27.0 0.00 0.04 0.03 35
20260508195842 65 247 8.0 20.0 0.00 0.04 0.03 35
20260508195319 64 206 8.0 16.0 0.00 0.04 0.03 35
20260508194818 64 209 9.0 20.0 0.00 0.04 0.03 34
20260508194317 65 332 10.0 22.0 0.00 0.04 0.03 33
20260508193816 65 304 12.0 23.0 0.00 0.04 0.03 32
20260508193315 65 255 9.0 28.0 0.00 0.04 0.03 32
20260508192835 65 311 10.0 20.0 0.00 0.04 0.03 32
20260508192313 64 302 8.0 19.0 0.00 0.04 0.03 32
20260508191833 64 204 9.0 19.0 0.00 0.04 0.03 33
20260508191332 64 237 7.0 25.0 0.00 0.04 0.03 33
20260508190810 65 136 6.0 16.0 0.00 0.04 0.03 33
20260508190309 64 240 4.0 10.0 0.00 0.04 0.03 33
20260508185808 65 316 9.0 17.0 0.00 0.04 0.03 32
20260508185307 66 325 13.0 27.0 0.00 0.04 0.03 34
20260508184806 64 311 8.0 18.0 0.00 0.04 0.03 35
20260508184305 64 154 3.0 8.0 0.00 0.04 0.03 35
20260508183804 63 212 6.0 13.0 0.00 0.04 0.03 34
20260508183303 64 233 8.0 22.0 0.00 0.04 0.03 33
20260508182802 65 208 6.0 14.0 0.00 0.04 0.03 33
20260508182301 65 341 10.0 18.0 0.00 0.04 0.03 33
20260508181800 64 346 5.0 10.0 0.00 0.04 0.03 34
20260508181259 64 173 6.0 13.0 0.00 0.04 0.03 34
20260508180758 64 217 7.0 14.0 0.00 0.04 0.03 32
20260508180257 64 296 5.0 10.0 0.00 0.04 0.03 34
20260508175756 64 239 5.0 16.0 0.00 0.04 0.03 33
20260508175255 64 255 10.0 21.0 0.00 0.04 0.03 35
20260508174754 64 254 8.0 19.0 0.00 0.04 0.03 35
20260508174253 63 263 8.0 19.0 0.00 0.04 0.03 33
20260508173813 63 346 11.0 19.0 0.00 0.04 0.03 35
20260508173251 64 256 8.0 13.0 0.00 0.04 0.03 34
20260508172749 64 305 5.0 13.0 0.00 0.04 0.03 36
20260508172310 64 338 7.0 17.0 0.00 0.04 0.03 37
20260508171748 63 280 7.0 14.0 0.00 0.04 0.03 37
20260508171247 63 296 9.0 20.0 0.00 0.04 0.03 35
20260508170746 62 230 6.0 14.0 0.00 0.04 0.03 39
20260508170245 61 245 3.0 8.0 0.00 0.04 0.03 38
20260508165805 62 243 7.0 18.0 0.00 0.04 0.03 38
20260508165243 62 326 12.0 27.0 0.00 0.04 0.03 37
20260508164742 61 279 6.0 19.0 0.00 0.04 0.03 39
20260508164303 61 261 6.0 12.0 0.00 0.04 0.03 39
20260508163740 61 290 9.0 17.0 0.00 0.04 0.03 39
20260508163239 61 273 9.0 20.0 0.00 0.04 0.03 38
20260508162759 61 336 9.0 24.0 0.00 0.04 0.03 39
20260508162237 60 294 7.0 15.0 0.00 0.04 0.03 39
20260508161736 60 265 7.0 14.0 0.00 0.04 0.03 40
20260508161256 60 216 9.0 15.0 0.00 0.04 0.03 42
20260508160754 59 225 10.0 18.0 0.00 0.04 0.03 41
20260508160233 59 344 6.0 13.0 0.00 0.04 0.03 42
20260508155732 60 308 7.0 12.0 0.00 0.04 0.03 41
20260508155231 60 324 6.0 13.0 0.00 0.04 0.03 42
20260508154729 59 271 5.0 11.0 0.00 0.04 0.03 43
20260508154229 59 319 7.0 13.0 0.00 0.04 0.03 42
20260508153728 59 358 7.0 14.0 0.00 0.04 0.03 46
20260508153227 59 355 4.0 10.0 0.00 0.04 0.03 46
20260508152726 58 336 5.0 11.0 0.00 0.04 0.03 45
20260508152225 59 332 7.0 10.0 0.00 0.04 0.03 46
20260508151723 59 268 4.0 8.0 0.00 0.04 0.03 47
20260508151222 59 7 3.0 7.0 0.00 0.04 0.03 49
20260508150722 58 164 3.0 6.0 0.00 0.04 0.03 50
20260508150220 57 184 7.0 14.0 0.00 0.04 0.03 48
20260508145720 56 198 4.0 9.0 0.00 0.04 0.03 51
20260508145218 56 220 2.0 6.0 0.00 0.04 0.03 51
20260508144717 55 335 4.0 10.0 0.00 0.04 0.03 49
20260508144217 55 357 2.0 10.0 0.00 0.04 0.03 54
20260508143716 55 1 2.0 9.0 0.00 0.04 0.03 55
20260508143215 54 317 6.0 9.0 0.00 0.04 0.03 55
20260508142713 55 283 1.0 6.0 0.00 0.04 0.03 58
20260508142213 55 14 2.0 6.0 0.00 0.04 0.03 61
20260508141711 54 72 1.0 5.0 0.00 0.04 0.03 65
20260508141211 53 172 2.0 6.0 0.00 0.04 0.03 62
20260508140709 52 242 1.0 6.0 0.00 0.04 0.03 61
20260508140209 52 233 1.0 5.0 0.00 0.04 0.03 63
20260508135708 52 197 3.0 6.0 0.00 0.04 0.03 67
20260508135206 52 182 2.0 7.0 0.00 0.04 0.03 68
20260508134705 51 180 3.0 9.0 0.00 0.04 0.03 69
20260508134204 51 171 1.0 7.0 0.00 0.04 0.03 69
20260508133704 50 169 3.0 6.0 0.00 0.04 0.03 71
20260508133202 51 166 2.0 6.0 0.00 0.04 0.03 73
20260508132701 50 153 4.0 7.0 0.00 0.04 0.03 73
20260508132221 50 180 2.0 8.0 0.00 0.04 0.03 77
20260508131659 49 195 3.0 7.0 0.00 0.04 0.03 76
20260508131219 49 203 2.0 6.0 0.00 0.04 0.03 77
20260508130657 49 153 2.0 6.0 0.00 0.04 0.03 77
20260508130217 48 161 3.0 7.0 0.00 0.04 0.03 78
20260508125717 48 174 2.0 6.0 0.00 0.04 0.03 79
20260508125154 47 168 2.0 6.0 0.00 0.04 0.03 80
20260508124653 47 184 3.0 8.0 0.00 0.04 0.03 81
20260508124152 47 187 2.0 6.0 0.00 0.04 0.03 84
20260508123651 45 174 1.0 5.0 0.00 0.04 0.03 84
20260508123150 45 186 1.0 5.0 0.00 0.04 0.03 86
20260508122649 44 172 2.0 6.0 0.00 0.04 0.03 88
20260508122148 44 176 2.0 7.0 0.00 0.04 0.03 88
20260508121647 44 162 2.0 7.0 0.00 0.04 0.03 90
20260508121146 43 168 1.0 5.0 0.00 0.04 0.03 92
20260508120645 42 164 3.0 6.0 0.00 0.04 0.03 94
20260508120144 42 157 1.0 7.0 0.00 0.04 0.03 95
20260508115644 41 160 0.0 3.0 0.00 0.04 0.03 96
20260508115142 41 165 1.0 5.0 0.00 0.04 0.03 97
20260508114702 41 181 0.0 0.0 0.00 0.04 0.03 98
20260508114141 41 199 0.0 0.0 0.00 0.04 0.03 98
20260508113639 41 171 0.0 0.0 0.00 0.04 0.03 98
20260508113159 40 171 0.0 0.0 0.00 0.04 0.03 98
20260508112637 39 171 0.0 0.0 0.00 0.04 0.03 98
20260508112157 39 171 0.0 0.0 0.00 0.04 0.03 98
20260508111656 39 171 0.0 0.0 0.00 0.04 0.03 98
20260508111134 38 171 0.0 0.0 0.00 0.04 0.03 98
20260508110633 38 171 0.0 0.0 0.00 0.04 0.03 98
20260508110153 38 171 0.0 0.0 0.00 0.04 0.03 98
20260508105631 38 171 0.0 0.0 0.00 0.04 0.03 98
20260508105130 38 171 0.0 0.0 0.00 0.04 0.03 98
20260508104629 38 171 0.0 0.0 0.00 0.04 0.03 98
20260508104128 38 163 0.0 0.0 0.00 0.04 0.03 98
20260508103627 38 163 0.0 0.0 0.00 0.04 0.03 98
20260508103126 38 163 0.0 0.0 0.00 0.04 0.03 98
20260508102625 38 163 0.0 0.0 0.00 0.04 0.03 98
20260508102124 38 163 0.0 0.0 0.00 0.04 0.03 98
20260508101623 38 163 0.0 0.0 0.00 0.04 0.03 98
20260508101143 38 163 0.0 0.0 0.00 0.04 0.03 98
20260508100621 38 163 0.0 0.0 0.00 0.04 0.03 98
20260508100141 38 163 0.0 0.0 0.00 0.04 0.03 98
20260508095619 38 163 0.0 0.0 0.00 0.04 0.03 98
20260508095118 39 163 0.0 0.0 0.00 0.04 0.03 98
20260508094617 39 163 0.0 0.0 0.00 0.04 0.03 98
20260508094116 39 163 0.0 0.0 0.00 0.04 0.03 98
20260508093636 39 163 0.0 0.0 0.00 0.04 0.03 98
20260508093114 39 163 0.0 0.0 0.00 0.04 0.03 98
20260508092613 39 163 0.0 0.0 0.00 0.04 0.03 98
20260508092112 39 163 0.0 0.0 0.00 0.04 0.03 98
20260508091611 39 163 0.0 0.0 0.00 0.04 0.03 97
20260508091110 40 163 0.0 0.0 0.00 0.04 0.03 97
20260508090608 40 163 0.0 0.0 0.00 0.04 0.03 98
20260508090108 40 163 0.0 0.0 0.00 0.04 0.03 98
20260508085607 40 163 0.0 0.0 0.00 0.04 0.03 98
20260508085106 41 163 0.0 0.0 0.00 0.04 0.03 97
20260508084626 41 163 0.0 0.0 0.00 0.04 0.03 97
20260508084104 41 163 0.0 0.0 0.00 0.04 0.03 97
20260508083603 41 163 0.0 0.0 0.00 0.04 0.03 97
20260508083102 41 163 0.0 0.0 0.00 0.04 0.03 98
20260508082601 41 239 0.0 0.0 0.00 0.04 0.03 97
20260508082100 41 0 0.0 0.0 0.00 0.04 0.03 97
20260508081559 41 0 0.0 0.0 0.00 0.04 0.03 97
20260508081058 41 0 0.0 0.0 0.00 0.04 0.03 97
20260508080557 41 0 0.0 0.0 0.00 0.04 0.03 97
20260508080056 41 0 0.0 0.0 0.00 0.04 0.03 97
20260508075616 42 0 0.0 0.0 0.00 0.04 0.03 97
20260508075115 42 0 0.0 0.0 0.00 0.04 0.03 97
20260508074553 42 0 0.0 0.0 0.00 0.04 0.03 97
20260508074051 42 0 0.0 0.0 0.00 0.04 0.03 97
20260508073612 41 0 0.0 0.0 0.00 0.04 0.03 97
20260508073049 41 0 0.0 0.0 0.00 0.04 0.03 97
20260508072549 41 0 0.0 0.0 0.00 0.04 0.03 97
20260508072048 41 0 0.0 0.0 0.00 0.04 0.03 97
20260508071547 41 0 0.0 0.0 0.00 0.04 0.03 97
20260508071046 41 0 0.0 0.0 0.00 0.04 0.03 97
20260508070545 41 0 0.0 0.0 0.00 0.04 0.03 97
20260508070044 41 0 0.0 0.0 0.00 0.04 0.03 97
20260508065542 41 0 0.0 0.0 0.00 0.04 0.03 97
20260508065103 41 0 0.0 0.0 0.00 0.04 0.03 97
20260508064541 41 2 0.0 0.0 0.00 0.04 0.03 97
20260508064040 41 2 0.0 0.0 0.00 0.04 0.03 97
20260508063600 41 2 0.0 0.0 0.00 0.04 0.03 97
20260508063038 41 2 0.0 0.0 0.00 0.04 0.03 96
20260508062537 41 2 0.0 0.0 0.00 0.04 0.03 96
20260508062056 41 2 0.0 0.0 0.00 0.04 0.03 96
20260508061535 41 2 0.0 0.0 0.00 0.04 0.03 96
20260508061033 41 2 0.0 0.0 0.00 0.04 0.03 96
20260508060533 41 2 0.0 0.0 0.00 0.04 0.03 96
20260508060031 41 2 0.0 0.0 0.00 0.04 0.03 96
20260508055530 41 2 0.0 0.0 0.00 0.04 0.03 96
20260508055030 41 2 0.0 0.0 0.00 0.04 0.03 96
20260508054529 41 2 0.0 0.0 0.00 0.04 0.03 96
20260508054027 41 4 0.0 0.0 0.00 0.04 0.03 95
20260508053526 41 100 0.0 0.0 0.00 0.04 0.03 95
20260508053026 41 169 0.0 0.0 0.01 0.04 0.03 95
20260508052525 41 169 0.0 0.0 0.01 0.04 0.03 95
20260508052023 41 169 0.0 0.0 0.01 0.04 0.03 95
20260508051522 42 169 0.0 0.0 0.01 0.04 0.03 94
20260508051021 42 170 0.0 0.0 0.01 0.04 0.03 94
20260508050541 42 179 0.0 0.0 0.02 0.04 0.03 94
20260508050019 42 160 0.0 1.0 0.03 0.04 0.03 94
20260508045518 42 140 0.0 0.0 0.04 0.04 0.03 93
20260508045017 43 140 0.0 0.0 0.04 0.04 0.03 93
20260508044516 43 140 0.0 0.0 0.04 0.04 0.03 93
20260508044036 42 140 0.0 0.0 0.04 0.04 0.03 92
20260508043514 42 140 0.0 0.0 0.04 0.04 0.03 92
20260508043013 42 140 0.0 0.0 0.03 0.03 0.02 91